Hourly Weather Roundup
Issued by NWS Central Illinois

Home | Current Version | Previous Version | Text Only | Print | Product List | Glossary On
Versions: 1 2 3 4 5 6 7 8 9 10 11 12 13 14 15 16 17 18 19 20 21 22 23 24 25 26 27 28 29 30 31 32 33 34 35 36 37 38 39 40 41 42 43 44 45 46 47 48 49 50
000
NZUS43 KILX 051310
HWRILX

AREA WEATHER ROUNDUP
NATIONAL WEATHER SERVICE, LINCOLN IL
700 AM CST THU MAR 05 2015


CITY           SKY/WX    TMP DP  RH WIND       PRES   REMARKS
BLOOMINGTON    MOCLDY     7   0  73 NW10      30.43R WCI  -7
CHAMPAIGN      MOCLDY     7  -1  70 NW10      30.41S WCI  -8
DECATUR        MOCLDY    10   1  67 N9        30.43R WCI  -3
EFFINGHAM      CLOUDY    13   0  56 NW6       30.46R WCI   3
FLORA          CLOUDY    15   4  61 N10       30.45R WCI   2
GALESBURG      CLEAR     -1  -7  78 W9        30.48R WCI -17
JACKSONVILLE   MOCLDY     8   1  74 NW6       30.48R WCI  -3
LACON          PTCLDY     3  -5  70 NW7       30.48R WCI -10
LAWRENCEVILLE  CLOUDY    17   6  62 NW14      30.43R WCI   3
LITCHFIELD     MOCLDY    10   0  62 N7        30.46R WCI  -1
$$


CITY           SKY/WX    TMP DP  RH WIND       PRES   REMARKS
LINCOLN        MOCLDY    10   2  68 CALM      30.50R
MACOMB         CLEAR      4  -3  71 NW12      30.51R WCI -12
MATTOON        CLOUDY     9   2  73 NW12      30.41R WCI  -6
MT CARMEL AP   CLOUDY    21   9  58 NW14      30.42R WCI   8
OLNEY-NOBLE AP CLOUDY    16   7  67 NW9       30.43R WCI   4
PARIS          MOCLDY     9   2  73 N6        30.41R WCI   0
PEORIA         PTCLDY     7  -3  64 NW5       30.48R WCI  -2
PONTIAC        MOCLDY     5  -1  77 NW7       30.44R WCI  -7
RANTOUL        PTCLDY     9   1  71 NW8       30.41R WCI  -3
ROBINSON       MOCLDY    15   4  62 N10       30.44R WCI   2
SPRINGFIELD    PTCLDY     9   0  67 N7        30.47R WCI  -2
TAYLORVILLE    MOCLDY    10   1  67 NW8       30.45S WCI  -1
$$

...REGIONAL REPORTS...


CITY           SKY/WX    TMP DP  RH WIND       PRES   REMARKS
CHICAGO O`HARE MOCLDY     4  -8  57 NW10      30.41R WCI -11
KANKAKEE       MOCLDY     8   1  75 NW6       30.42R WCI  -2
MOLINE         CLEAR      1  -8  66 NW9       30.50R WCI -14
MOUNT VERNON   CLOUDY    18   1  49 N5        30.44S WCI  11
PITTSFIELD     PTCLDY    10   3  72 N8        30.50R WCI  -1
QUINCY         PTCLDY     7   0  73 N10       30.49R WCI  -8
ROCKFORD       PTCLDY    -4  -9  79 NW5       30.46R WCI -15
$$


CITY           SKY/WX    TMP DP  RH WIND       PRES   REMARKS
BURLINGTON     CLEAR      2  -5  72 NW6       30.51R WCI  -9
CEDAR RAPIDS   CLEAR     -8 -12  83 NW8       30.50R WCI -24
DES MOINES     PTCLDY     2  -7  66 NW3       30.54R
KIRKSVILLE     NOT AVBL
OTTUMWA        CLEAR      0  -6  76 NW6       30.52R WCI -12
ST LOUIS       MOCLDY    17   3  54 N9        30.48R WCI   6
$$


CITY           SKY/WX    TMP DP  RH WIND       PRES   REMARKS
TERRE HAUTE    MOCLDY    13   2  61 NW10      30.39S WCI   0
EVANSVILLE     MOCLDY    20   8  60 NW7       30.43R WCI  11
INDIANAPOLIS   CLOUDY    16   5  62 N12       30.32S WCI   3
LAFAYETTE      MOCLDY     8   0  69 NW7       30.38S WCI  -3
MADISON        PTCLDY    -3 -11  68 NW3       30.43R
MILWAUKEE      PTCLDY     4 -10  52 NW8       30.41R WCI  -9
$$





USA.gov is the U.S. government's official web portal to all federal, state and local government web resources and services.